Location: Austin
(30.3000°N, 97.7500°W)
Time: 04:10:12
(UTC-05:00)

Cosmos 1842 - Pass Details

Date: 18 March 2023
Orbit: 507 x 522 km, 82.5° (Epoch: 01 April)

Event Time Altitude Azimuth Distance (km) Brightness Sun altitude
Rises 21:12:33 0° 349° (N) 2,625 7.1 -20.4°
Reaches altitude 10° 21:14:42 10° 346° (NNW) 1,733 6.2 -20.9°
Maximum altitude 21:18:27 61° 266° (W) 579 3.6 -21.7°
Enters shadow 21:20:44 22° 191° (S) 1,151 4.9 -22.1°
